[[{"header":{"parameterUnit":"m.s-1","parameterCategory":1,"la1":30.2991,"la2":30.254,"lo1":-89.0895,"lo2":-89.0444,"dy":0.0017,"dx":0.0017,"nx":28,"ny":28,"refTime":"2023-09-28T03:00:00:Z","depth":0,"parameterNumber":2,"parameterNumberName":"U-component_of_WINDS"},"data":[0,0,0,0,0,0,0,0,0,0,0,0,0,0,0,0,0,0,0,0,0,0,0,0,0,0,0,0,0,0,0,0,0,0,0,0,0,0,0,0,0,0,0,0,0,0,0,0,0,0,0,0,0,0,0,0,0,0,-4.7159,-4.716,0,-4.7212,-4.7212,-4.7213,-4.7018,-4.7013,-4.7007,-4.7001,-4.7058,-4.7065,-4.7072,0,0,0,0,0,0,0,0,0,0,0,0,0,-4.6892,-4.6898,-4.7159,-4.716,-4.7161,-4.7212,-4.7212,-4.7213,-4.7019,-4.7012,-4.7005,-4.6999,-4.7056,-4.7064,-4.7072,0,0,0,0,0,0,0,0,0,0,0,0,0,-4.6983,-4.69,-4.7159,-4.707,-4.7063,-4.7212,-4.7212,-4.7213,-4.7021,-4.7012,-4.7004,-4.6995,-4.7053,-4.7063,-4.7074,-4.7312,0,0,-4.7105,-4.711,0,0,0,0,0,0,0,0,-4.6978,-4.6993,-4.7083,-4.7076,-4.7068,-4.71,-4.7139,-4.7247,-4.7023,-4.7037,-4.7001,-4.6991,-4.7079,-4.7087,-4.7116,-4.7315,-4.7317,-4.7106,-4.7113,-4.7117,-4.712,0,0,0,0,0,0,0,-4.6972,-4.699,-4.718,-4.7084,-4.7075,-4.7028,-4.7031,-4.7158,-4.7106,-4.7035,-4.7021,-4.703,-4.7074,-4.7107,-4.7116,-4.7318,-4.7106,-4.7115,-4.7122,-4.7126,-4.7713,-4.7722,0,0,0,0,0,0,-4.6977,-4.6986,-4.7178,-4.7182,-4.7001,-4.704,-4.7043,-4.7098,-4.7104,-4.7097,-4.7037,-4.702,-4.7093,-4.7104,-4.7117,-4.7395,-4.7117,-4.7127,-4.7133,-4.7704,-4.7715,-4.7725,0,0,0,0,0,0,-4.6973,-4.6996,-4.7176,-4.708,-4.7099,-4.7054,-4.7117,-4.7104,-4.7136,-4.7106,-4.7096,-4.708,-4.7087,-4.7103,-4.7264,-4.7395,-4.7131,-4.7141,-4.7693,-4.7707,-4.772,-4.7955,0,0,0,0,0,0,-4.6966,-4.6996,-4.7086,-4.7083,-4.7105,-4.7323,-4.7125,-4.7111,-4.7155,-4.7133,-4.7144,-4.7137,-4.7081,-4.725,-4.7275,-4.7404,-4.7149,-4.7681,-4.7699,-4.7716,-4.7935,-4.7975,-4.8009,0,0,0,0,0,-4.6957,-4.7151,-4.7091,-4.7116,-4.7216,-4.7331,-4.7343,-4.7274,-4.7166,-4.7256,-4.7236,-4.7137,-4.7377,-4.7268,-4.7294,-4.7429,-4.7672,-4.7694,-4.7714,-4.7919,-4.7967,-4.8008,0,0,0,0,0,0,-4.7171,-4.7149,-4.7083,-4.7282,-4.731,-4.7298,-4.7409,-4.7328,-4.7388,-4.7366,-4.7278,-4.7282,-4.7459,-4.746,-4.734,-4.7659,-4.7506,-4.7533,-4.7652,-4.7698,-4.7734,-4.773,-4.7158,0,0,0,0,0,-4.7241,-4.7335,-4.7311,-4.7489,-4.7506,-4.7456,-4.7503,-4.7447,-4.7473,-4.7484,-4.7476,-4.7505,-4.7586,-4.7642,-4.7716,-4.7934,-4.7933,-4.804,-4.8077,-4.8107,-4.8132,-4.8246,-4.8293,-4.7794,-4.7794,-4.7794,0,0,-4.7387,-4.7387,-4.7452,-4.7532,-4.7546,-4.7646,-4.7467,-4.758,-4.7653,-4.7501,-4.7653,-4.7648,-4.7675,-4.7866,-4.795,-4.7872,-4.8269,-4.8134,-4.8159,-4.8167,-4.8273,-4.832,-4.8362,-4.7809,-4.7806,-4.7804,0,0,-4.7704,-4.7714,-4.7862,-4.788,-4.7905,-4.787,-4.7906,-4.7906,-4.7897,-4.8048,-4.7935,-4.8021,-4.8164,-4.8187,-4.8218,-4.8543,-4.8454,-4.857,-4.8763,-4.8876,-4.8915,-4.8949,-4.9064,-4.9107,-4.8594,-4.8595,-4.8595,0,-4.7883,-4.8028,-4.7949,-4.8069,-4.8108,-4.7973,-4.8123,-4.8145,-4.8193,-4.8223,-4.8135,-4.831,-4.8319,-4.8513,-4.8592,-4.8622,-4.8659,-4.8568,-4.8915,-4.8949,-4.898,-4.9089,-4.9132,-4.8609,-4.8607,-4.8606,-4.8604,0,-4.8246,-4.8348,-4.8465,-4.8513,-4.8565,-4.87,-4.8641,-4.8703,-4.8643,-4.8617,-4.8772,-4.8778,-4.8849,-4.8891,-4.8834,-4.9078,-4.9028,-4.893,-4.8774,-4.9043,-4.9143,-4.9185,-4.8629,-4.8624,-4.8619,-4.8616,0,0,-4.8699,-4.8701,-4.8745,-4.8765,-4.8782,-4.8859,-4.8988,-4.9057,-4.9111,-4.9149,-4.9254,-4.9378,-4.9286,-4.9321,-4.9265,-4.9364,-4.962,-4.9253,-4.9252,-4.932,-4.9887,-4.9961,-5.001,-4.9561,-4.9569,-4.9575,-4.9884,0,-4.9009,-4.9228,-4.916,-4.9381,-4.9474,-4.9347,-4.9459,-4.9482,-4.9462,-4.9538,-4.9515,-4.9604,-4.9477,-4.9497,-4.9589,-4.957,-4.9733,-4.9546,-4.9658,-4.9663,-4.9654,-5.0063,-5.0141,-5.0433,-4.9923,-4.993,-4.9935,0,-4.94,-4.9452,-4.9682,-4.9682,-4.9718,-4.982,-4.9877,-4.9951,-4.9975,-4.9953,-4.9992,-4.9915,-5.0041,-4.9885,-5.0057,-4.9932,-4.9974,-4.9971,-4.9981,-4.9988,-4.9815,-5.0081,-5.0525,-5.0569,-4.9996,-4.9991,-4.9987,0,-4.9707,-4.9834,-4.9987,-5.0008,-5.0012,-5.0086,-5.0092,-5.0106,-5.0151,-5.0202,-5.023,-5.0296,-5.0331,-5.0384,-5.0327,-5.0218,-5.0508,-5.0347,-5.0493,-5.0495,-5.0559,-5.0556,-5.1016,-5.0588,-5.0587,-5.0587,-5.0586,0,-5.006,-5.0205,-5.0124,-5.0219,-5.0378,-5.0299,-5.0459,-5.045,-5.0464,-5.0554,-5.0449,-5.0537,-5.0456,-5.0537,-5.0493,-5.0642,-5.0659,-5.0645,-5.0632,-5.0654,-5.0656,-5.068,-5.0658,-5.0598,-5.0596,-5.0593,-5.0591,0,-5.0428,-5.038,-5.0539,-5.0529,-5.053,-5.0648,-5.064,-5.0727,-5.0698,-5.0814,-5.0837,-5.0794,-5.0882,-5.0831,-5.0922,-5.0893,-5.1086,-5.1046,-5.1078,-5.1067,-5.1215,-5.1202,-5.1706,-5.1768,-5.1302,-5.1307,-5.131,0,-5.0656,-5.0765,-5.0767,-5.0819,-5.0831,-5.0918,-5.0963,-5.089,-5.0941,-5.0975,-5.1058,-5.1138,-5.1197,-5.1346,-5.1322,-5.1392,-5.1351,-5.1523,-5.1361,-5.138,-5.1352,-5.1346,-5.1356,-5.1556,-5.1561,-5.1566,-5.1569,0,-5.1065,-5.1036,-5.1105,-5.1166,-5.1223,-5.1268,-5.1304,-5.1354,-5.128,-5.1344,-5.1433,-5.1479,-5.1571,-5.1652,-5.171,-5.1716,-5.1632,-5.1621,-5.1658,-5.1681,-5.1695,-5.1688,-5.1166,-5.1609,-5.1605,-5.1602,-5.16,-5.1599,-5.1369,-5.146,-5.1475,-5.1555,-5.1574,-5.161,-5.1691,-5.1672,-5.1745,-5.1814,-5.1766,-5.1872,-5.1891,-5.1961,-5.1977,-5.2058,-5.1989,-5.2044,-5.2057,-5.2071,-5.2091,-5.1683,-5.2069,-5.2068,-5.2067,-5.2066,-5.2065,0,-5.1772,-5.1775,-5.185,-5.1903,-5.1966,-5.188,-5.1915,-5.1974,-5.2068,-5.2092,-5.2153,-5.2255,-5.2332,-5.2315,-5.2385,-5.2453,-5.2416,-5.2474,-5.2467,-5.247,-5.215,-5.211,-5.2503,-5.2502,-5.2502,-5.2502,-5.2502,-5.2502,-5.1989,-5.2136,-5.2109,-5.2265,-5.2266,-5.2368,-5.2395,-5.2428,-5.2447,-5.2566,-5.2629,-5.2616,-5.2625,-5.2694,-5.2761,-5.2753,-5.2784,-5.2856,-5.2835,-5.2536,-5.2493,-5.2451,-5.2413,-5.2863,-5.2864,-5.3148,-5.315,-5.3153]},{"header":{"parameterUnit":"m.s-1","parameterCategory":1,"la1":30.2991,"la2":30.254,"lo1":-89.0895,"lo2":-89.0444,"dy":0.0017,"dx":0.0017,"nx":28,"ny":28,"refTime":"2023-09-28T03:00:00:Z","depth":0,"parameterNumber":3,"parameterNumberName":"V-component_of_WINDS"},"data":[0,0,0,0,0,0,0,0,0,0,0,0,0,0,0,0,0,0,0,0,0,0,0,0,0,0,0,0,0,0,0,0,0,0,0,0,0,0,0,0,0,0,0,0,0,0,0,0,0,0,0,0,0,0,0,0,0,0,-1.6746,-1.6747,0,-1.6773,-1.6773,-1.6774,-1.679,-1.679,-1.679,-1.679,-1.6816,-1.6816,-1.6817,0,0,0,0,0,0,0,0,0,0,0,0,0,-1.6707,-1.6708,-1.6746,-1.6747,-1.6747,-1.6773,-1.6773,-1.6774,-1.679,-1.679,-1.679,-1.679,-1.6816,-1.6816,-1.6817,0,0,0,0,0,0,0,0,0,0,0,0,0,-1.6728,-1.6708,-1.6746,-1.6758,-1.676,-1.6773,-1.6773,-1.6774,-1.679,-1.679,-1.679,-1.679,-1.6815,-1.6816,-1.6817,-1.682,0,0,-1.682,-1.682,0,0,0,0,0,0,0,0,-1.6727,-1.6729,-1.6756,-1.6757,-1.6759,-1.6778,-1.6769,-1.6789,-1.679,-1.6778,-1.679,-1.679,-1.6803,-1.6805,-1.681,-1.6822,-1.6823,-1.682,-1.6821,-1.6821,-1.6821,0,0,0,0,0,0,0,-1.6725,-1.6728,-1.6757,-1.6756,-1.6758,-1.6761,-1.6765,-1.6773,-1.679,-1.6779,-1.678,-1.6783,-1.6804,-1.6809,-1.681,-1.6823,-1.682,-1.6821,-1.6821,-1.6822,-1.6837,-1.6837,0,0,0,0,0,0,-1.6722,-1.6727,-1.6756,-1.6758,-1.6743,-1.6762,-1.6766,-1.6772,-1.679,-1.6792,-1.6783,-1.6784,-1.6807,-1.6809,-1.6811,-1.6815,-1.6821,-1.6822,-1.6822,-1.6837,-1.6837,-1.6837,0,0,0,0,0,0,-1.6721,-1.6725,-1.6755,-1.6743,-1.6747,-1.6763,-1.677,-1.6772,-1.6777,-1.6793,-1.6795,-1.6785,-1.6807,-1.681,-1.6818,-1.6817,-1.6822,-1.6823,-1.6838,-1.6837,-1.6837,-1.6824,0,0,0,0,0,0,-1.672,-1.6724,-1.6726,-1.6743,-1.6747,-1.6762,-1.677,-1.6773,-1.6779,-1.678,-1.6795,-1.6798,-1.6808,-1.6816,-1.6819,-1.6818,-1.6824,-1.6838,-1.6837,-1.6837,-1.6825,-1.6823,-1.6822,0,0,0,0,0,-1.6719,-1.6722,-1.6726,-1.673,-1.675,-1.6762,-1.6764,-1.6776,-1.6779,-1.6781,-1.679,-1.6798,-1.6816,-1.6817,-1.682,-1.6819,-1.6838,-1.6838,-1.6837,-1.6825,-1.6824,-1.6822,0,0,0,0,0,0,-1.6705,-1.6724,-1.673,-1.6738,-1.6748,-1.6764,-1.6767,-1.6774,-1.6783,-1.6784,-1.6797,-1.68,-1.6806,-1.6814,-1.6814,-1.6823,-1.6828,-1.6828,-1.6818,-1.6816,-1.6815,-1.6813,-1.6825,0,0,0,0,0,-1.6703,-1.6711,-1.6727,-1.6733,-1.6737,-1.6751,-1.6756,-1.6764,-1.6775,-1.6779,-1.679,-1.6799,-1.6807,-1.6812,-1.682,-1.6826,-1.6829,-1.6827,-1.6825,-1.6824,-1.6824,-1.6826,-1.6825,-1.6836,-1.6836,-1.6836,0,0,-1.6699,-1.671,-1.6714,-1.673,-1.6739,-1.6746,-1.6755,-1.6762,-1.6767,-1.678,-1.6788,-1.6796,-1.6807,-1.6813,-1.6817,-1.682,-1.6822,-1.6824,-1.6823,-1.6824,-1.6826,-1.6825,-1.6824,-1.6836,-1.6836,-1.6836,0,0,-1.6695,-1.6704,-1.671,-1.6718,-1.6731,-1.674,-1.6741,-1.6756,-1.6761,-1.677,-1.6779,-1.6785,-1.6799,-1.6806,-1.6812,-1.6809,-1.6815,-1.6811,-1.6805,-1.6807,-1.6806,-1.6805,-1.6803,-1.6802,-1.6811,-1.6811,-1.6811,0,-1.6688,-1.67,-1.6712,-1.6718,-1.6724,-1.6736,-1.6741,-1.6748,-1.6763,-1.6767,-1.677,-1.6786,-1.6795,-1.6803,-1.6802,-1.6806,-1.6807,-1.6809,-1.6805,-1.6804,-1.6804,-1.6802,-1.6801,-1.681,-1.681,-1.681,-1.681,0,-1.669,-1.6698,-1.67,-1.6714,-1.672,-1.6726,-1.6738,-1.6743,-1.675,-1.6758,-1.6765,-1.6776,-1.6786,-1.6788,-1.6795,-1.6796,-1.6797,-1.6803,-1.6808,-1.6802,-1.6801,-1.68,-1.6809,-1.6809,-1.681,-1.681,0,0,-1.6679,-1.6698,-1.6699,-1.6705,-1.6719,-1.6725,-1.673,-1.674,-1.6744,-1.6753,-1.6757,-1.6768,-1.6773,-1.6779,-1.6786,-1.6788,-1.6784,-1.6793,-1.6793,-1.679,-1.6784,-1.678,-1.6779,-1.6788,-1.6788,-1.6788,-1.6783,0,-1.6677,-1.6688,-1.6698,-1.6705,-1.6711,-1.6722,-1.6726,-1.6735,-1.6743,-1.6749,-1.6757,-1.6764,-1.677,-1.6773,-1.6775,-1.6784,-1.6782,-1.6784,-1.6791,-1.6792,-1.6788,-1.6778,-1.6774,-1.6769,-1.6783,-1.6782,-1.6782,0,-1.6676,-1.6684,-1.6692,-1.6704,-1.6707,-1.6711,-1.672,-1.6726,-1.6736,-1.6741,-1.6747,-1.6755,-1.676,-1.6765,-1.6772,-1.6773,-1.6776,-1.678,-1.678,-1.6781,-1.6786,-1.6778,-1.6768,-1.6766,-1.6782,-1.6782,-1.6782,0,-1.6666,-1.6679,-1.6685,-1.669,-1.6705,-1.6707,-1.6713,-1.6723,-1.6727,-1.6735,-1.6738,-1.6746,-1.6751,-1.6756,-1.6766,-1.6768,-1.6771,-1.6777,-1.6775,-1.6774,-1.6775,-1.6774,-1.6764,-1.6778,-1.6778,-1.6778,-1.6778,0,-1.6662,-1.6666,-1.6681,-1.6684,-1.6689,-1.67,-1.6703,-1.671,-1.6719,-1.6723,-1.6733,-1.6736,-1.6749,-1.6754,-1.6761,-1.6765,-1.6767,-1.677,-1.6772,-1.6769,-1.6769,-1.6772,-1.6772,-1.6777,-1.6777,-1.6777,-1.6778,0,-1.6652,-1.6662,-1.6669,-1.6682,-1.6685,-1.6688,-1.6698,-1.6702,-1.6709,-1.6714,-1.6716,-1.6728,-1.6734,-1.6744,-1.6753,-1.6758,-1.676,-1.6764,-1.6757,-1.6758,-1.6755,-1.6755,-1.6745,-1.6744,-1.6759,-1.6759,-1.6759,0,-1.6649,-1.6653,-1.6665,-1.6669,-1.6674,-1.668,-1.6685,-1.6695,-1.67,-1.671,-1.6712,-1.6718,-1.6725,-1.6734,-1.6743,-1.6749,-1.6752,-1.6749,-1.6754,-1.675,-1.6751,-1.6751,-1.6751,-1.6747,-1.6747,-1.6747,-1.6747,0,-1.6642,-1.6647,-1.6653,-1.6661,-1.6666,-1.6673,-1.668,-1.6682,-1.6694,-1.6698,-1.6704,-1.6709,-1.6717,-1.6724,-1.6731,-1.6737,-1.6743,-1.6745,-1.6745,-1.6742,-1.6737,-1.6739,-1.6753,-1.6745,-1.6745,-1.6746,-1.6746,-1.6746,-1.6635,-1.6638,-1.6647,-1.6653,-1.666,-1.6665,-1.6669,-1.6676,-1.6682,-1.669,-1.6695,-1.6701,-1.6709,-1.672,-1.6725,-1.6729,-1.6732,-1.6731,-1.6731,-1.6731,-1.6729,-1.6737,-1.673,-1.673,-1.673,-1.673,-1.673,0,-1.6628,-1.6634,-1.664,-1.6649,-1.6653,-1.6659,-1.6667,-1.667,-1.6675,-1.6682,-1.6687,-1.6693,-1.6699,-1.6708,-1.6714,-1.6716,-1.6718,-1.6717,-1.6717,-1.6717,-1.6727,-1.6726,-1.6714,-1.6714,-1.6714,-1.6714,-1.6714,-1.6714,-1.6625,-1.663,-1.6635,-1.6642,-1.6647,-1.6653,-1.6657,-1.6662,-1.6667,-1.6674,-1.6678,-1.6684,-1.6691,-1.6698,-1.6703,-1.6705,-1.6707,-1.6704,-1.6707,-1.6715,-1.6717,-1.6718,-1.6718,-1.6704,-1.6704,-1.6697,-1.6697,-1.6697]}]]